Location: *
(46.1333°S, 161.2167°W)
Time: 04:11:37
(UTC+00:00)

Radarsat Rocket - Pass Details

Date: 15 July 2020
Orbit: 934 x 1491 km, 100.6° (Epoch: 10 August)

Event Time Altitude Azimuth Distance (km) Brightness Sun altitude
Rises 16:04:00 0° 8° (N) 4,258 7.5 -23.2°
Reaches altitude 10° 16:06:51 10° 5° (N) 3,218 6.8 -22.7°
Maximum altitude 16:14:05 63° 284° (WNW) 1,266 4.3 -21.5°
Enters shadow 16:20:00 13° 204° (SSW) 2,685 6.0 -20.5°
